Marshfield, WI

10:17 PM CDT on July 29, 2016 (GMT -0500)
Marshfield Municipal

Weather History for KMFI - January, 2013

Change the Weather History Date:

Sunday, January 20, 2013

  Actual Average Record
Temperature  
Mean Temperature 4 °F -  
Max Temperature 8 °F 24 °F 46 °F (1921)
Min Temperature 0 °F 3 °F -28 °F (1985)
Degree Days  
Heating Degree Days 61    
Moisture  
Dew Point -6 °F    
Average Humidity 68    
Maximum Humidity 85    
Minimum Humidity 53    
Precipitation  
Precipitation 0.00 in - - ()
Sea Level Pressure  
Sea Level Pressure 30.20 in    
Wind  
Wind Speed 17 mph (NW)    
Max Wind Speed 28 mph    
Max Gust Speed 41 mph    
Visibility 9 miles    
Events Snow    
Averages and records for this station are not official NWS values.
T = Trace of Precipitation, MM = Missing Value Source: NWS Daily Summary

Daily Weather History Graph

Daily Weather History Graph

Search for Another Location

Airport or City:

Trip Planner

Search our weather history database for the weather conditions in past years. The results will help you decide how hot, cold, wet, or windy it might be!

Date:

Astronomy

Jan. 20, 2013 Rise Set
Actual Time 7:30 AM CST 4:53 PM CST
Civil Twilight 6:58 AM CST 5:25 PM CST
Nautical Twilight 6:23 AM CST 6:01 PM CST
Astronomical Twilight 5:48 AM CST 6:35 PM CST
Moon 11:55 AM CST (1/20) 2:01 AM CST (1/20)
Length of Visible Light 10h 26m
Length of Day
9h 22m
Waxing Gibbous, 66% of the Moon is Illuminated
Jan 20
Waxing Gibbous
Jan 26
Full
Feb 3
Last Quarter
Feb 10
New
Feb 17
First Quarter

Hourly Weather History & Observations

Time (CST) Temp. Windchill Dew Point Humidity Pressure Visibility Wind Dir Wind Speed Gust Speed Precip Events Conditions
12:18 AM 3.2 °F -19.0 °F -4.0 °F 72% 29.97 in 10.0 mi NW 23.0 mph 41.4 mph N/A   Mostly Cloudy
12:54 AM 3.9 °F -16.1 °F -4.0 °F 70% 30.05 in 10.0 mi NW 18.4 mph 29.9 mph N/A   Mostly Cloudy
1:35 AM 3.2 °F -20.7 °F -5.8 °F 66% 30.02 in 10.0 mi NW 27.6 mph 34.5 mph N/A   Scattered Clouds
2:16 AM 3.2 °F -17.1 °F -5.8 °F 66% 30.07 in 10.0 mi WNW 18.4 mph 25.3 mph N/A   Mostly Cloudy
2:24 AM 3.2 °F -16.5 °F -5.8 °F 66% 30.07 in 10.0 mi NW 17.3 mph 25.3 mph N/A   Scattered Clouds
2:54 AM 1.9 °F -19.8 °F -6.0 °F 69% 30.16 in 10.0 mi NW 20.7 mph 27.6 mph N/A   Clear
3:54 AM 1.9 °F -18.7 °F -7.1 °F 66% 30.17 in 10.0 mi NW 18.4 mph 26.5 mph N/A   Clear
4:54 AM 1.0 °F -19.9 °F -7.1 °F 69% 30.21 in 10.0 mi NW 18.4 mph 24.2 mph N/A   Clear
5:54 AM -0.0 °F -21.3 °F -7.1 °F 72% 30.24 in 10.0 mi NW 18.4 mph 25.3 mph N/A   Partly Cloudy
6:54 AM -0.0 °F -21.3 °F -7.1 °F 72% 30.28 in 10.0 mi NW 18.4 mph - N/A   Partly Cloudy
7:54 AM -0.9 °F -18.3 °F -7.1 °F 75% 30.30 in 10.0 mi NW 11.5 mph - N/A   Clear
8:54 AM -0.0 °F -20.7 °F -7.1 °F 72% 30.32 in 10.0 mi NW 17.3 mph - N/A   Clear
9:54 AM 1.9 °F -17.5 °F -8.0 °F 63% 30.32 in 10.0 mi NW 16.1 mph - N/A   Clear
10:54 AM 3.0 °F -16.1 °F -6.0 °F 66% 30.34 in 10.0 mi WNW 16.1 mph - N/A   Clear
12:54 PM 8.1 °F -6.2 °F -4.0 °F 58% 30.30 in 10.0 mi WNW 10.4 mph - N/A   Clear
1:54 PM 8.1 °F -9.6 °F -6.0 °F 53% 30.30 in 10.0 mi NW 16.1 mph 21.9 mph N/A   Mostly Cloudy
3:54 PM 7.0 °F -10.4 °F -7.1 °F 53% 30.28 in 10.0 mi WNW 15.0 mph - N/A   Clear
4:54 PM 6.1 °F -8.7 °F -8.0 °F 53% 30.28 in 10.0 mi WNW 10.4 mph - N/A   Overcast
5:54 PM 3.9 °F -12.2 °F -7.1 °F 60% 30.27 in 10.0 mi WNW 11.5 mph - N/A   Partly Cloudy
6:54 PM 3.9 °F -13.0 °F -7.1 °F 60% 30.27 in 10.0 mi WNW 12.7 mph - N/A   Scattered Clouds
7:54 PM 3.9 °F -15.6 °F -6.0 °F 64% 30.27 in 10.0 mi WNW 17.3 mph 20.7 mph N/A   Overcast
8:54 PM 3.0 °F -10.5 °F -6.0 °F 66% 30.25 in 10.0 mi WNW 8.1 mph - N/A   Overcast
9:54 PM 3.0 °F -13.3 °F -5.1 °F 69% 30.24 in 10.0 mi NW 11.5 mph - N/A   Overcast
10:54 PM 1.9 °F -11.8 °F -4.0 °F 76% 30.23 in 8.0 mi NW 8.1 mph - N/A   Overcast
11:02 PM 1.4 °F -13.5 °F -2.2 °F 85% 30.12 in 2.5 mi NW 9.2 mph - 0.00 in Snow Light Snow
11:13 PM 1.4 °F -16.1 °F -2.2 °F 85% 30.12 in 1.5 mi NW 12.7 mph - 0.00 in Snow Light Snow
11:37 PM 1.4 °F -15.3 °F -4.0 °F 78% 30.12 in 3.0 mi WNW 11.5 mph - 0.00 in Snow Light Snow
11:47 PM 1.4 °F -13.5 °F -5.8 °F 72% 30.11 in 10.0 mi WNW 9.2 mph - 0.00 in   Mostly Cloudy
11:54 PM 1.0 °F -14.0 °F -5.1 °F 75% 30.21 in 10.0 mi WNW 9.2 mph - 0.00 in   Mostly Cloudy